Location: Powder Track
(41.8531°N, 72.3584°W)
Time: 03:48:36
(UTC+00:00)

Vanguard 1 Rocket - All Passes

Search period start: 06 August 2021 00:00
Search period end: 16 August 2021 00:00
Orbit: 650 x 4226 km, 34.3° (Epoch: 05 August)

Date Brightness Start Highest point End Pass type
(mag) Time Alt. Az. Time Alt. Az. Time Alt. Az.
06 Aug - 10:09:35 10° S 10:27:28 24° SE 10:42:29 10° E daylight
06 Aug - 12:33:46 10° SW 12:57:12 49° SSE 13:12:13 10° E daylight
06 Aug - 15:05:17 10° WSW 15:26:36 64° S 15:37:44 10° E daylight
06 Aug - 17:38:54 10° W 17:53:41 50° SSW 18:01:22 10° SE daylight
06 Aug - 20:12:34 10° W 20:17:31 15° SW 20:21:18 10° SSW daylight
07 Aug - 09:02:33 10° SSE 09:14:04 15° SE 09:24:54 10° ESE visible
07 Aug - 11:20:39 10° SSW 11:43:16 40° SSE 11:59:54 10° E daylight
07 Aug - 13:49:47 10° WSW 14:13:19 61° SSE 14:26:43 10° E daylight
07 Aug - 16:23:14 10° W 16:41:49 61° SSW 16:51:13 10° ESE daylight
07 Aug - 18:56:45 10° W 19:07:08 30° SW 19:13:22 10° SSE daylight
08 Aug - 10:09:11 10° S 10:29:24 30° SE 10:46:23 10° E daylight
08 Aug - 12:35:04 10° SW 12:59:29 55° SSE 13:15:11 10° E daylight
08 Aug - 15:07:19 10° WSW 15:29:10 66° S 15:40:39 10° ESE daylight
08 Aug - 17:41:16 10° W 17:56:09 45° SSW 18:04:04 10° SE daylight
08 Aug - 20:17:07 10° WSW 20:19:36 11° SW 20:21:48 10° SW daylight
09 Aug - 09:00:05 10° S 09:15:52 21° SE 09:30:40 10° E visible
09 Aug - 11:21:32 10° SW 11:45:21 46° SSE 12:02:59 10° E daylight
09 Aug - 13:51:37 10° WSW 14:15:47 65° S 14:29:37 10° E daylight
09 Aug - 16:25:28 10° W 16:44:21 58° SSW 16:54:03 10° ESE daylight
09 Aug - 18:59:35 10° W 19:09:20 25° SW 19:15:31 10° S daylight
10 Aug - 07:58:18 10° SE 08:02:49 11° SE 08:07:21 10° ESE visible
10 Aug - 10:09:29 10° SSW 10:31:15 37° SE 10:49:48 10° E daylight
10 Aug - 12:36:38 10° SW 13:01:47 60° SSE 13:18:05 10° E daylight
10 Aug - 15:09:26 10° W 15:31:42 66° S 15:43:30 10° ESE daylight
10 Aug - 17:43:41 10° W 17:58:29 40° SW 18:06:35 10° SSE daylight
11 Aug - 08:59:17 10° S 09:17:32 26° SE 09:34:58 10° E visible
11 Aug - 11:22:46 10° SW 11:47:25 53° SSE 12:05:55 10° E daylight
11 Aug - 13:53:35 10° WSW 14:18:14 68° S 14:32:29 10° E daylight
11 Aug - 16:27:42 10° W 16:46:47 55° SSW 16:56:45 10° SE daylight
11 Aug - 19:02:41 10° W 19:11:23 20° SW 19:17:17 10° S daylight
12 Aug - 07:52:23 10° SSE 08:04:25 16° SE 08:16:42 10° E visible
12 Aug - 10:10:17 10° SSW 10:33:04 43° SE 10:52:53 10° E daylight
12 Aug - 12:38:25 10° WSW 13:04:04 65° SSE 13:20:55 10° E daylight
12 Aug - 15:11:35 10° W 15:34:11 64° SSW 15:46:18 10° ESE daylight
12 Aug - 17:46:10 10° W 18:00:39 35° SW 18:08:56 10° SSE daylight
13 Aug - 08:59:22 10° S 09:19:10 32° SE 09:38:34 10° E visible
13 Aug - 11:24:19 10° SW 11:49:29 58° SSE 12:08:45 10° E daylight
13 Aug - 13:55:40 10° WSW 14:20:39 69° S 14:35:18 10° ESE daylight
13 Aug - 16:29:58 10° W 16:49:06 50° SSW 16:59:21 10° SE daylight
13 Aug - 19:06:17 10° W 19:13:17 16° SW 19:18:29 10° SSW daylight
14 Aug - 07:50:43 10° S 08:05:54 21° SE 08:21:58 10° E visible
14 Aug - 10:11:29 10° SW 10:34:54 49° SSE 10:55:47 10° E daylight
14 Aug - 12:40:23 10° WSW 13:06:21 68° S 13:23:43 10° E daylight
14 Aug - 15:13:47 10° W 15:36:33 62° SSW 15:49:02 10° ESE daylight
14 Aug - 17:48:48 10° W 18:02:40 30° SW 18:11:02 10° SSE daylight
15 Aug - 06:49:13 10° SE 06:53:22 11° ESE 06:57:38 10° ESE visible
15 Aug - 09:00:05 10° SSW 09:20:45 38° SE 09:41:44 10° E visible
15 Aug - 11:26:06 10° SW 11:51:35 63° SSE 12:11:30 10° E daylight
15 Aug - 13:57:50 10° W 14:23:02 68° S 14:38:04 10° ESE daylight
15 Aug - 16:32:17 10° W 16:51:15 45° SW 17:01:48 10° SE daylight
15 Aug - 19:11:12 10° WSW 19:15:04 12° WSW 19:18:21 10° SW daylight
